Regional Weather Roundup
Issued by NWS

Home | Current Version | Previous Version | Text Only | Print | Product List | Glossary Off
Versions: 1 2 3 4 5 6 7 8 9 10 11 12 13 14 15 16 17 18 19 20 21 22 23 24 25 26 27 28 29 30 31 32 33 34 35 36 37 38 39 40 41 42 43 44 45 46 47 48 49 50

000
ASUS43 KMPX 231410
RWRMN
WEATHER ROUNDUP FOR MINNESOTA
NATIONAL WEATHER SERVICE TWIN CITIES/CHANHASSEN MN
900 AM CDT MON OCT 23 2017


NOTE: "FAIR" INDICATES FEW OR NO CLOUDS BELOW 12,000 FEET WITH NO
SIGNIFICANT WEATHER AND/OR OBSTRUCTIONS TO VISIBILITY. N/A MEANS
CURRENT SKY AND/OR WEATHER CONDITIONS ARE NOT AVAILABLE.

MNZ060>063-068>070-231500-
   Twin Cities Metro

CITY           SKY/WX    TMP DP  RH WIND       PRES   REMARKS
TWIN CITIES    MOSUNNY   52  39  61 W12       29.76F
ST PAUL        SUNNY     51  38  60 VRB6      29.77F
CRYSTAL        MOSUNNY   52  37  56 W10       29.75S
BLAINE         MOSUNNY   54  37  54 SW6       29.75F
LAKEVILLE        N/A     52  39  62 W10G16    29.76F
EDEN PRAIRIE   MOSUNNY   52  39  61 W8        29.75F
SOUTH ST PAUL  CLOUDY    50  38  62 W6        29.76F
LAKE ELMO      FAIR      48  39  71 SW6       29.76F
$$
MNZ001>005-007-008-013>017-022>024-027-028-231500-
   Northwest Minnesota

CITY           SKY/WX    TMP DP  RH WIND       PRES   REMARKS
BEMIDJI        CLEAR     45  38  78 W17G25    29.71R
HALLOCK        CLOUDY    45  39  81 NW17G24   29.80R
ROSEAU         CLOUDY    46  39  76 NW17G25   29.70R
WARROAD        MOCLDY    46  43  87 NW15G21   29.68R
THIEF RVR FALL CLOUDY    45  39  81 NW21G30   29.75R
CROOKSTON      CLOUDY    46  41  81 NW20G26   29.78R
FOSSTON        CLOUDY    45  39  81 W20       29.74R
DETROIT LAKES  CLOUDY    45  37  76 NW16G24   29.79R
MOORHEAD       CLOUDY    46  37  71 W18       29.82R
PARK RAPIDS    LGT RAIN  47  39  74 W17G33    29.73R
MAHNOMEN       CLOUDY    44  39  84 W17G24    29.76R
$$
MNZ006-009>011-018-025>026-231500-
   North Central Minnesota

CITY           SKY/WX    TMP DP  RH WIND       PRES   REMARKS
BAUDETTE       CLOUDY    49  46  90 W10       29.63R
FLAG ISLAND    CLOUDY    48  43  81 N15G22    29.65R
INTL FALLS     CLOUDY    48  45  89 SW7       29.60S
WASKISH        CLOUDY    46  43  87 W15G22    29.66R
BIG FORK       MOSUNNY   50  43  76 W6        29.66R
LONGVILLE      SUNNY     50  43  76 W13G21    29.70R
GRAND RAPIDS   SUNNY     51  40  65 VRB7      29.70R
ORR            CLOUDY    46  39  76 S3        29.62R
COOK           CLOUDY    46  39  76 SW5       29.65S
WALKER         FAIR      48  39  71 W18G28    29.71R
$$
MNZ012-019>021-037-231500-
   Northeast Minnesota

CITY           SKY/WX    TMP DP  RH WIND       PRES   REMARKS
DULUTH         PTSUNNY   51  37  58 SW12      29.68S
ELY            LGT RAIN  46  39  76 S6        29.66F
HIBBING        SUNNY     48  37  65 S5        29.66S
EVELETH        CLOUDY    47  40  78 SW5       29.68S
DULUTH HARBOR  MOSUNNY   55  41  58 SW13      29.70R
TWO HARBORS    CLOUDY    52  45  76 CALM      29.67F
SILVER BAY     LGT RAIN  50  43  76 CALM      29.68R
G MARAIS ARPRT LGT RAIN  46  39  76 S3        29.72S
$$
MNZ029>031-032-039>041-046>048-054>057-064-231500-
   West Central Minnesota

CITY           SKY/WX    TMP DP  RH WIND       PRES   REMARKS
FERGUS FALLS   CLEAR     46  36  66 NW18G30   29.83R
WHEATON        CLOUDY    48  36  61 W20       29.87R
MORRIS         MOSUNNY   52  37  58 NW23G33   29.82R
ALEXANDRIA     MOSUNNY   51  37  58 NW23G35   29.79S
ELBOW LAKE     FAIR      47  37  66 NW17G23   29.83R
WADENA         SUNNY     48  37  66 W12G23    29.75R
GLENWOOD       MOSUNNY   50  37  62 W16G25    29.79S
APPLETON       SUNNY     54  37  54 W15G21    29.84R
BENSON         SUNNY     52  37  58 NW18G24   29.84S
ORTONVILLE     SUNNY     52  36  54 NW20G30   29.86R
MADISON        SUNNY     54  39  58 NW17G26   29.88R
WILLMAR        FAIR      50  41  71 W16       29.83R
$$
MNZ033>034-036-042>043-049>051-058-059-231500-
   Central Minnesota

CITY           SKY/WX    TMP DP  RH WIND       PRES   REMARKS
ST CLOUD       PTSUNNY   52  43  71 W15       29.76R
SAUK CENTRE    FAIR      50  40  69 W10       29.78S
PAYNESVILLE    MOSUNNY   50  41  72 W14       29.79S
AITKIN         MOSUNNY   52  41  66 W6        29.70R
PINE RIVER     SUNNY     48  39  71 W9        29.76R
BRAINERD       SUNNY     52  41  66 W13G24    29.73R
STAPLES        SUNNY     48  37  66 W13       29.75R
LONG PRAIRIE   FAIR      50  37  62 W16G24    29.77S
LITTLE FALLS   SUNNY     52  34  50 W12       29.75R
LITCHFIELD     MOSUNNY   54  43  66 W14       29.80R
BUFFALO        MOSUNNY   52  41  65 W10       29.78S
MAPLE LAKE     MOSUNNY   53  44  71 W10G17    29.78R
HUTCHINSON     CLOUDY    54  43  67 W13       29.81R
$$
MNZ037-044-045-052-053-231500-
   East Central Minnesota

CITY           SKY/WX    TMP DP  RH WIND       PRES   REMARKS
PRINCETON      MOSUNNY   54  43  66 W10       29.74S
MORA           SUNNY     50  37  62 W10       29.73F
CAMBRIDGE      SUNNY     54  39  58 W6        29.73F
RUSH CITY      SUNNY     51  37  59 SW6       29.73F
MOOSE LAKE     CLOUDY    50  36  57 SW8       29.69S
HINCKLEY       FAIR      52  37  58 SW8       29.72F
CLOQUET        SUNNY     52  36  54 SW8       29.69S
MCGREGOR       MOSUNNY   52  43  71 SW6       29.70S
$$
MNZ071>073-080-081-089-090-097-098-231500-
   Southwest Minnesota

CITY           SKY/WX    TMP DP  RH WIND       PRES   REMARKS
MONTEVIDEO     SUNNY     52  39  62 NW15      29.85R
GRANITE FALLS  MOSUNNY   52  41  64 W18G24    29.87R
CANBY          MOSUNNY   52  38  58 W15G23    29.90R
MARSHALL       PTSUNNY   51  39  63 NW21G28   29.87R
REDWOOD FALLS  CLOUDY    53  39  59 NW16      29.83R
OLIVIA         PTSUNNY   52  41  66 W15G21    29.82R
PIPESTONE      MOSUNNY   48  37  66 NW13G21   29.91R
WORTHINGTON    PTSUNNY   51  40  65 NW17G23   29.90R
JACKSON        CLOUDY    52  39  62 NW14      29.87S
TRACY          CLOUDY    53  41  64 NW16G24   29.88R
SLAYTON        MOSUNNY   50  39  66 W16G25    29.90R
$$
MNZ065>067-074>077-082>085-091>093-231500-
   South Central Minnesota

CITY           SKY/WX    TMP DP  RH WIND       PRES   REMARKS
MANKATO        PTSUNNY   50  40  68 W13       29.82R
NEW ULM        CLOUDY    52  41  66 W14       29.83R
ST JAMES       CLOUDY    54  41  62 W14G21    29.85S
FAIRMONT       MOSUNNY   54  41  61 NW16      29.86R
GLENCOE        PTSUNNY   54  43  67 W12G18    29.79R
FARIBAULT      SUNNY     50  39  66 SW7       29.79S
OWATONNA       CLOUDY    48  39  71 W13       29.80R
WASECA         PTSUNNY   46  37  71 SW8       29.83R
$$
MNZ078>079-086>088-094>096-231500-
   Southeast Minnesota

CITY           SKY/WX    TMP DP  RH WIND       PRES   REMARKS
ROCHESTER      SUNNY     48  39  71 SW10      29.82R
RED WING       MOSUNNY   52  36  54 SE6       29.77S
STANTON        CLOUDY    49  38  65 SW5       29.77S
DODGE CENTER   PTSUNNY   48  37  66 SW12G20   29.81R
WINONA         CLOUDY    50  37  62 S3        29.82S
AUSTIN         PTSUNNY   46  39  76 SW6       29.82F
PRESTON        PTSUNNY   47  37  66 SW10      29.83R
$$
ABBREVIATIONS USED IN REMARKS
   TC - TEMPERATURES IN CELSIUS
  WCI - WIND CHILL INDEX
   HX - HEAT INDEX
  VSB - VISIBILITY
$$




USA.gov is the U.S. government's official web portal to all federal, state and local government web resources and services.